Regional Weather Roundup
Issued by NWS Wakefield, VA

Home | Current Version | Previous Version | Graphics & Text | Print | Product List | Glossary On
Versions: 1 2 3 4 5 6 7 8 9 10 11 12 13 14 15 16 17 18 19 20 21 22 23 24 25 26 27
000
ASUS41 KAKQ 222115
RWRAKQ

REGIONAL WEATHER ROUNDUP
NATIONAL WEATHER SERVICE WAKEFIELD VA
500 PM EDT THU JUN 22 2017

Note: "fair" indicates few or no clouds below 12,000 feet with no
significant weather and/or obstructions to visibility. * = Denotes
station may not report precipitation (e.g., rain,snow,etc.),
thunder or fog.

VAZ042-051-052>054-056-222200-
NORTHERN VIRGINIA

CITY           SKY/WX    TMP DP  RH WIND       PRES   REMARKS
WASH NATIONAL  CLOUDY    87  69  54 SW13      29.96F
DULLES         CLOUDY    85  69  58 SW9       29.97F
FORT BELVOIR   CLOUDY    86  71  60 SW5       29.96F
QUANTICO       CLOUDY    87  76  69 SW5       29.97F HX  97
FREDERICKSBRG* CLOUDY    88  73  61 SW6       29.97F HX  95
STAFFORD*      CLOUDY    85  72  65 SW6       30.02S
WARRENTON      CLOUDY    87  70  57 S3        29.98F
CULPEPER*      CLOUDY    87  72  61 S8        29.98F
MANASSAS*      CLOUDY    85  73  67 S6        29.97F
LEESBURG*      CLOUDY    88  73  62 S6        29.98F HX  96
WINCHESTER     CLOUDY    82  70  65 S7        29.98S
FRONT ROYAL*   CLOUDY    84  72  65 S3        29.98S
LURAY*         CLOUDY    84  70  61 S5        30.00F
$$

VAZ048-049-060>072-079>083-222200-
CENTRAL AND SOUTH CENTRAL VIRGINIA

CITY           SKY/WX    TMP DP  RH WIND       PRES   REMARKS
RICHMOND       CLOUDY    87  71  58 SW13      29.99F
CHESTERFIELD*  NOT AVBL
PETERSBURG*    CLOUDY    83  71  65 CALM      30.02F
HANOVER        MOSUNNY   87  69  54 SW13G18   30.00F
TAPPAHANNOCK*  MOSUNNY   87  66  50 S6        29.99F
QUINTON*       FAIR      87  74  64 SW5       29.98F HX  95
CHARLOTTSVILLE CLOUDY    87  71  58 SW8       30.00F
GORDONSVILLE*  CLOUDY    86  72  64 S7        29.99F
ORANGE*        CLOUDY    86  70  58 SW7       29.99F
LOUISA*        PTSUNNY   88  75  66 S5        29.99F HX  97
BUMPASS*       FAIR      85  75  73 CALM      29.99F
FARMVILLE*     CLOUDY    85  68  57 SW6       30.01F
CREWE*         FAIR      83  66  56 SW3       30.02F
FORT PICKETT*  FAIR     N/A N/A N/A SW9G17    30.03F
CHASE CITY*    FAIR      84  72  66 SW6       30.04F
CLARKSVILLE*   FAIR      82  70  65 SW8G16    30.04S
SOUTH HILL*    PTSUNNY   86  74  67 SW9       30.09S HX  95
LAWRENCEVILLE* FAIR      85  72  63 MISG      30.03S
EMPORIA*       CLOUDY    86  72  62 SW5       30.03F
$$

VAZ088>098-222200-
SOUTHEAST VIRGINIA

CITY           SKY/WX    TMP DP  RH WIND       PRES   REMARKS
NORFOLK        CLOUDY    88  71  57 W10       30.00F
VIRGINIA BEACH PTSUNNY   86  70  58 SW10      30.00S
NORFOLK NAVAL  CLOUDY    88  70  55 SW9       30.01F
WEST POINT*    CLOUDY    88  71  56 SW9       30.00F
SALUDA*        FAIR      87  76  70 SW6       29.98S HX  97
NEWPORT NEWS   MOSUNNY   86  72  62 W10       30.00F
LANGLEY AFB    CLOUDY    86  73  65 W13       30.00F
FORT EUSTIS    MOSUNNY   87  74  64 SW6       29.98F HX  96
WILLIAMSBURG*  CLOUDY    90  75  62 CALM      30.01F HX 100
HR EXEC AP*    FAIR      88  72  58 W5        29.98F
FRANKLIN*      CLOUDY    84  73  70 W5        30.02F
US460-WAKEFLD  CLOUDY    86  74  67 SW6       30.01F
$$

VAZ020-022-025-037-045-222200-
WEST CENTRAL AND SOUTHWEST VIRGINIA

CITY           SKY/WX    TMP DP  RH WIND       PRES   REMARKS
STAUNTON*      CLOUDY    83  68  59 SW9       30.05S
WAYNESBORO*    CLOUDY    82  69  66 S6        30.05F
HOT SPRINGS VA CLOUDY    72  59  64 S7        30.19F
LYNCHBURG      CLOUDY    82  64  54 SW9       30.05F
DANVILLE       CLOUDY    80  69  69 S6        30.05F
SOUTH BOSTON*  FAIR      83  70  63 SW7       30.04F
MARTINSVILLE   CLOUDY    80  70  72 CALM      30.09F
ROANOKE        CLOUDY    83  64  52 W9        30.07F
BLACKSBURG     CLOUDY    78  64  62 SW3       30.15F
DUBLIN*        CLOUDY    80  63  55 SW10      30.13F
MARION*        CLOUDY    71  67  85 W8        30.18F
HILLSVILLE*    DRIZZLE   70  65  84 CALM      30.15F
RICHLANDS*     DRIZZLE   70  68  93 CALM      30.16F
WISE*          LGT RAIN  70  70 100 CALM      30.15F
ABINGDON*      DRIZZLE   73  69  87 E3        30.13F
$$

MDZ021>025-VAZ099-100-222200-
SOUTHERN MARYLAND AND THE DELMARVA PENINSULA

CITY           SKY/WX    TMP DP  RH WIND       PRES   REMARKS
PATUXENT RIVER CLOUDY    87  71  58 W7        29.97F
BAY BRIDGE APT CLOUDY    86  72  62 S7        29.95F
LEONARDTOWN    PTSUNNY   86  70  58 SW3       29.99F
DOVER          CLOUDY    86  74  66 SW10      29.93F
GEORGETOWN     CLOUDY    87  69  54 W6        29.96F
EASTON         CLOUDY    86  72  62 SW6       30.00F
CAMBRIDGE      SUNNY     86  72  62 W5        29.97F
SALISBURY      PTSUNNY   85  71  63 SW7       29.98S
OCEAN CITY     PTSUNNY   85  74  69 W7        29.98S
WALLOPS ISLAND CLOUDY    85  70  60 SW6       29.98F
ACCOMACK*      MOSUNNY   87  69  54 SW9       29.99S
$$

NCZ012>017-030>032-222200-
NORTH CENTRAL AND EASTERN NORTH CAROLINA

CITY           SKY/WX    TMP DP  RH WIND       PRES   REMARKS
ROANOKE RAPIDS FAIR      86  72  62 SW9       30.03F
RALEIGH        LGT RAIN  79  73  82 W5        30.07F
ELIZABETH CITY CLOUDY    88  76  67 SW9       30.01F HX  99
AHOSKIE*         N/A     82  76  81 CALM      30.04S
EDENTON*       CLOUDY    88  75  65 W8        30.03F HX  97
CURRITUCK*     CLOUDY    89  73  57 SW9       30.02F HX  96
KILL DEVIL HLS CLOUDY    84  73  67 CALM      30.01F
MANTEO         CLOUDY    86  72  62 W7        30.03F
CAPE HATTERAS  PTSUNNY   84  76  76 SW10      30.06S
TARBORO*       NOT AVBL
GOLDSBORO      LGT RAIN  82  80  95 SW10      30.06S
WASHINGTON     PTSUNNY   82  76  82 SW7       30.06S
GREENVILLE     RAIN      82  77  83 SW6       30.07F
NEW BERN       CLOUDY    82  77  84 W6        30.08F
WILMINGTON     RAIN      78  76  93 W8        30.09R
$$

VAZ048-222200-
ELSEWHERE

CITY           SKY/WX    TMP DP  RH WIND       PRES   REMARKS
HARRISBURG PA  PTSUNNY   88  68  51 SW8       29.91F
BALTIMORE      CLOUDY    86  69  56 SW8       29.95F
ANNAPOLIS      CLOUDY    86  73  65 VRB3      29.95F
ANDREWS AFB    NOT AVBL
PHILADELPHIA   CLOUDY    88  66  48 SW13      29.93F
HENDERSON NC   CLOUDY    80  69  68 SW12G17   30.06S
GREENSBORO     CLOUDY    77  72  84 SW7       30.08S
ROCKY MOUNT    PTSUNNY   83  74  74 SW8       30.06S
$$

VAZ100-222200-
MARINE

STATION/POSITION TIME  TEMP    WIND        PRES    WAVE   SWELL
                       AIR SEA DIR/SP/G            HT/PER HT/PER
                 (UTC) (F)     (DEG/KT/KT) (MB)    (FT/S) (FT/S)
BRANDYWINE LGT   2042   75     160/ 10/ 11 1014.8F
CAPE MAY NJ      2048   77 72  160/  8/ 11 1014.4F
LEWES DE         2042   81 73  170/  6/  8 1014.5F
15NM E FENWICK I 2050   72 70  180/  8/ 10 1015.3F   2/ 5   2/ 5
OCEAN-CITY-INLET 2048   70 66  220/ 11/ 12 1015.3F
WACHAPREAGUE VA  2048   87 83  260/  5/  8 1015.2F
THOMAS POINT MD  2100   83 78  220/ 10/ 10   N/A
GOOSES REEF MD   2100   84 81  270/  6/  6 1015.5    0
COVE POINT MD    2048   86     270/  7/ 11 1015.5F
SOLOMONS ISLAND  2042   86 76  230/  5/  6   N/A
BISHOPS HEAD MD  2048   84 83  220/  5/  7 1015.5F
PINEY POINT MD   2048           10/  4/  5   N/A
POTOMAC MD       2100   85 83  320/  4/  8 1013.9    0
CAMBRIDGE MD     2048   87 81              1015.6F
LEWISETTA VA     2048   86 78  250/  8/  9 1014.9F
RAPPAHANNOCK LGT 2048          200/ 12/ 13 1016.0F
STINGRAY PT      2050   84     270/  8/ 10 1016.0F
YORK RVR RNG VA  2048   85     240/ 10/ 11 1016.1F
YORKTOWN VA      2048   86 77  230/  8/ 10 1015.4F
JAMESTOWN VA     2100   85 83  230/  8/ 10   N/A     0
DOMINION TERM VA 2048   85     250/  8/  9 1016.2F
KIPTOPEKE VA     2036      78  250/  4/  6   N/A
CHES BAY BRIDGE  2048   84 76  270/  9/ 10 1015.8F
CAPE HENRY VA    2048   88     230/  6/ 10   N/A
WILLOUBY STN VA  2048   84     250/  9/ 11 1016.0F
S CRANEY ISL VA  2048   87     240/  7/ 11 1016.0F
CAPE HENRY BUOY  2100      78                N/A     2/ 7
1ST LANDING BUOY 2100   83 77              1015.7    1/ 3
CAPE CHARLES BUO 2051      71                N/A     2/12
64NM E OF VA BCH 2050   74 73  210/  8/  8 1017.0F   2/ 9   2/ 9
DUCK PIER NC     2048   85 63  250/  7/ 10 1016.1F
44100 DUCK FRF   2005      71                N/A     2/ 7
OREGON INLET NC  2036   82 82  200/ 18/ 20 1016.7F
HATTERAS NC      2048   82 79  220/  8/ 15 1017.6F
DIAMOND SHLS NC  2050   80 81  230/ 14/ 16 1017.6F   3/ 8   2/ 8
CAPE LOOKOUT NC  2100   80     220/  8/ 11 1018.1R
$$




USA.gov is the U.S. government's official web portal to all federal, state and local government web resources and services.